Location: Azul
(36.7830°S, 59.8500°W)
Time: 09:54:28
(UTC-03:00)

ISS - Pass Details

Date: 12 December 2017
Orbit: 402 x 406 km, 51.6° (Epoch: 16 December)

Event Time Altitude Azimuth Distance (km) Brightness Sun altitude
Exits shadow 01:38:00 13° 137° (SE) 1,315 -0.6 -29.2°
Drops below altitude 10° 01:38:25 10° 136° (SE) 1,483 -0.3 -29.2°
Sets 01:40:32 0° 133° (SE) 2,351 0.8 -29.1°
